www.pogodaiklimat.ru

Погода и климат >> Архив погоды >> Россия >> Магаданская область >> Мыс Братьев


ПОГОДА на Мысе Братьев

  • Прогноз погоды на Мысе Братьев
  • Монитор погоды на Мысе Братьев
  • Климат города

АРХИВ ПОГОДЫ на Мысе Братьев

Время (UTC), дата Ветер
(напр.,м/с)
 
Видим.   Явления Облачность Т
(С)
Тd
(С)
f
(%)
Тe
(С)
Тes
(С)
Комфортность P
(гПа)
Po
(гПа)
Тmin
(С)
Tmax
(С)
R
(мм)
S
(см)
03 17.02 В 6 10 км слабый ливневой снег {метель} 10/10 600 м
[Cb cap]
-12.6 -13.9 90 -22 -22 1014.9 1013.2
06 17.02 В 6 10 км слабый ливневой снег {метель} 10/10 600 м
[Cb cap]
-13.2 -14.6 89 -22 -22 1014.8 1013.1
09 17.02 В 7 10 км слабый ливневой снег {метель} 10/10 600 м
[Cb cap]
-13.4 -14.9 88 -23 -23 1015.0 1013.3 -12.3
12 17.02 С 2
{10}
10 км слабый ливневой снег {метель} 10/10 600 м
[Cb cap]
-16.0 -18.3 82 -21 -21 1014.9 1013.1
15 17.02 С 5 20 км {ливн. осадки} 1/1 600 м
[Cb cap]
-17.1 -20.0 78 -26 -26 1013.8 1012.1
18 17.02 С 4
{10}
50 км 4/4 600 м
[Cb cap]
-16.5 -20.2 73 -25 -25 1012.7 1010.9
21 17.02 СВ 8-12
{16}
50 км 6/6 600 м
[Cb cap]
-15.5 -19.0 74 -27 -27 1011.5 1009.8 -18.4 2
00 18.02 СВ 13-17
{17}
20 км 8/8 600 м
[Cb cap]
-15.4 -18.0 80 -29 -29 1010.2 1008.5
03 18.02 С 12-18
{19}
20 км позёмок {метель} 8/8 600 м
[Cb cap]
-14.9 -19.8 66 -28 -28 1007.4 1005.7
06 18.02 С 12-17
{18}
50 км 3/3 1000 м
[Sc Ci fib]
-14.6 -19.7 65 -27 -27 1005.4 1003.6
09 18.02 С 13-20
{20}
20 км 8/8 600 м
[Cb cap]
-14.0 -19.1 65 -27 -27 1004.4 1002.7 -13.8
12 18.02 С 14-20
{22}
20 км 8/8 600 м
[Cb cap]
-12.7 -17.7 66 -26 -26 1003.0 1001.3
15 18.02 СВ 12-22
{22}
20 км 10/10 600 м
[Cb cap]
-11.3 -16.1 68 -23 -23 1001.9 1000.2
18 18.02 С 14-19
{22}
20 км 10/10 600 м
[Cb cap]
-10.9 -14.5 75 -23 -23 1000.7 999.1
21 18.02 СВ 14-22
{25}
20 км 10/10 600 м
[Cb cap]
-9.1 -13.1 73 -21 -21 999.9 998.3 -14.1 2
00 19.02 С 13-20
{22}
20 км 10/10 600 м
[Cb cap]
-9.1 -11.2 85 -21 -21 1000.3 998.6
03 19.02 С 13-19
{21}
20 км 10/10 600 м
[Cb cap]
-7.3 -10.4 78 -18 -18 999.3 997.7
06 19.02 С 14-19
{24}
20 км 10/10 600 м
[Cb cap]
-6.4 -9.9 76 -18 -18 999.5 997.8
09 19.02 СВ 14-20
{22}
20 км 10/10 600 м
[Cb cap]
-6.3 -8.4 85 -18 -18 1000.0 998.3 -6.2
12 19.02 СВ 16-22
{25}
20 км 10/10 600 м
[Cb cap]
-6.2 -7.9 88 -18 -18 1000.0 998.4
15 19.02 СВ 15-21
{24}
10 км слабый ливневой снег 10/10 600 м
[Cb cap]
-6.2 -7.8 88 -18 -18 1000.6 998.9
18 19.02 СВ 16-23
{24}
20 км {ливн. осадки} 10/10 600 м
[Cb cap]
-6.0 -8.2 84 -18 -18 1001.3 999.6
21 19.02 СВ 12-19
{23}
20 км 10/10 600 м
[Cb cap]
-5.6 -7.5 86 -16 -16 1001.1 999.5 -6.7 0.7 2
00 20.02 С 15-21
{21}
20 км 10/10 600 м
[Cb cap]
-5.2 -7.6 83 -16 -16 1001.3 999.7
03 20.02 С 12-17
{22}
10 км слабый ливневой снег 9/9 600 м
[Cb cap]
-5.6 -7.1 89 -16 -16 1000.2 998.6
06 20.02 С 14-22
{22}
20 км {ливн. осадки} 9/9 600 м
[Cb cap]
-5.0 -7.0 86 -16 -16 1000.3 998.7
09 20.02 СВ 16-23
{25}
20 км 10/10 600 м
[Cb cap]
-5.5 -7.0 89 -17 -17 1001.2 999.5 -4.8 0.3
12 20.02 СВ 13-19
{23}
20 км 9/9 600 м
[Cb cap]
-5.6 -7.4 87 -16 -16 1002.0 1000.4
15 20.02 СВ 12-21
{23}
20 км 10/10 600 м
[Cb cap]
-5.1 -7.3 85 -15 -15 1002.3 1000.7
18 20.02 СВ 17-22
{28}
20 км 10/10 600 м
[Cb cap]
-5.6 -7.9 84 -18 -18 1002.3 1000.7
21 20.02 СВ 17-23
{27}
20 км 10/10 600 м
[Cb cap]
-6.1 -7.1 93 -18 -18 1002.8 1001.1 -6.1 2
00 21.02 СВ 18-24
{29}
2000 м метель 10/10 600 м
[Cb cap]
-6.0 -7.0 93 -18 -18 1003.2 1001.5
03 21.02 СВ 15-24
{25}
20 км {ливн. осадки, метель} 10/10 600 м
[Cb cap]
-5.8 -7.2 90 -17 -17 1004.4 1002.7
06 21.02 СВ 14-21
{24}
20 км {метель} 8/8 600 м
[Cb cap]
-5.8 -7.8 86 -17 -17 1005.5 1003.8
09 21.02 СВ 14-20
{22}
20 км 8/8 600 м
[Cb cap]
-6.4 -9.1 81 -18 -18 1006.3 1004.7 -5.7 0.2
12 21.02 СВ 13-17
{20}
20 км 10/10 600 м
[Cb cap]
-6.7 -9.8 79 -18 -18 1006.9 1005.2
15 21.02 СВ 14-21
{23}
20 км 10/10 600 м
[Cb cap]
-7.7 -11.2 76 -19 -19 1005.9 1004.2
18 21.02 СВ 15-21
{23}
20 км 10/10 600 м
[Cb cap]
-8.3 -12.2 73 -20 -20 1005.0 1003.3
21 21.02 СВ 12-18
{26}
20 км 8/8 600 м
[Cb cap]
-8.5 -12.8 71 -20 -20 1005.3 1003.6 -8.6 2
00 22.02 СВ 13-18
{22}
20 км 8/8 600 м
[Cb cap]
-8.1 -13.0 68 -19 -19 1004.8 1003.1 -8.9
03 22.02 СВ 7-13
{21}
50 км 8/5 600 м
[Cb cap Ac lent Ci fib]
-7.7 -13.6 63 -16 -16 1003.8 1002.1
06 22.02 СВ 12-19
{21}
50 км 8/6 600 м
[Cb cap Ac lent]
-8.3 -13.5 66 -19 -19 1003.7 1002.0
09 22.02 СВ 10-16
{21}
50 км 8/6 600 м
[Cb cap Ac lent]
-9.0 -13.8 68 -19 -19 1004.2 1002.5 -7.7
12 22.02 С 11-23
{25}
50 км 8/8 600 м
[Cb cap]
-9.1 -14.0 68 -20 -20 1004.0 1002.3
15 22.02 СВ 15-22
{25}
50 км 8/8 600 м
[Cb cap]
-9.4 -14.8 65 -22 -22 1003.1 1001.5
18 22.02 СВ 15-23
{28}
50 км 9/3 600 м
[Cb cap Ci fib]
-10.4 -15.1 68 -23 -23 1002.3 1000.6
21 22.02 СВ 10-14
{23}
50 км 8/5 600 м
[Cb cap Ci fib]
-10.8 -16.1 65 -22 -22 1001.9 1000.2 -11.0 2
00 23.02 С 11-15
{17}
50 км 8/3 600 м
[Cb cap Ci fib]
-10.5 -17.3 57 -22 -22 1000.0 998.3 -11.4
03 23.02 С 11-14
{17}
50 км 9/1 600 м
[Cb cap Ci fib]
-11.3 -19.4 51 -23 -23 999.1 997.4
06 23.02 С 9-13
{16}
50 км 10/1 600 м
[Cb cap As op]
-11.8 -20.1 50 -22 -22 999.0 997.4
09 23.02 С 8-11
{13}
50 км 8/0
[As trans]
-14.0 -21.7 52 -25 -25 999.9 998.2 -10.1
12 23.02 С 8-10
{11}
50 км 6/6 600 м
[Cb cap]
-14.8 -20.9 60 -26 -26 1000.8 999.1
15 23.02 С 8-10
{13}
50 км 9/0
[Ci fib]
-13.9 -20.2 59 -24 -24 1000.9 999.2
18 23.02 С 6
{12}
50 км 8/8 1000 м
[Sc]
-14.7 -18.7 72 -24 -24 1002.0 1000.3
21 23.02 С 6 50 км 10/10 600 м
[Cb cap]
-15.4 -18.4 78 -25 -25 1002.9 1001.2 -15.4 2
00 24.02 С 5 50 км 5/5 1000 м
[Sc]
-14.3 -18.8 69 -23 -22 1003.6 1001.9 -15.8

 

Местоположение метеостанции Мыс Братьев (Магаданская область, Россия): широта 59.10 долгота 153.30 высота над уровнем моря 13 м.

В архиве по умолчанию представлена погода на Мысе Братьев за последнюю неделю. Архивные данные за месяц целиком и за предыдущие месяцы, начиная с января 2011 года, Вы можете получить, выбрав интересующий диапазон дат из раскрывающегося списка и нажав кнопку "Ввод!".

Внимание! Время в таблицах - всемирное. Для получения местного времени необходимо прибавить поправку, которая на Мысе Братьев равна 11 ч.

Смотрите также архив погоды в соседних городах и на ближайших метеорологических станциях:

Погода в Брохово (Магаданская область, Россия) (80 км)
Погода на Мысе Алевина (Магаданская область, Россия) (119 км)
Погода в Оле (Магаданская область, Россия) (130 км)
Погода в Магадане (Магаданская область, Россия) (156 км)
Погода в Палатке (Магаданская область, Россия) (175 км)
Погода в Армани (Магаданская область, Россия) (192 км)
Погода в Мадауне (Магаданская область, Россия) (221 км)
Погода в Шелихова (Магаданская область, Россия) (228 км)
Погода в Талае (Магаданская область, Россия) (232 км)
Погода на Остров Спафарьева (Магаданская область, Россия) (245 км)

Пояснения к столбцам:

Ветер - указаны скорость ветра в м/с - средняя за 10 мин, порывы в срок и между сроками (в фигурных скобках) и направление, откуда дует ветер: С - северный, СВ - северо-восточный, В - восточный, ЮВ - юго-восточный, Ю - южный, ЮЗ - юго-западный, З - западный, СЗ - северо-западный.
Видимость - горизонтальная дальность видимости в метрах или километрах. При видимости от 1 до 10 км при отсутствии осадков обычно наблюдается дымка, при ухудшении видимости до 1 км и менее - туман. В сухую погоду видимость может ухудшаться дымом, пылью или мглою.
Явления - указаны атмосферные явления, наблюдавшиеся в срок или в последний час перед сроком; фигурными скобками обозначены явления, наблюдавшиеся между сроками (за 1-3 часа до срока); квадратными скобками обозначены град или гололедные отложения с указанием их диаметра в мм.
Облачность - указаны через наклонную черту общая и нижняя облачность в баллах и высота нижней границы облаков в метрах; квадратными скобками обозначены формы облаков: Ci - перистые, Cs - перисто-слоистые, Cc - перисто-кучевые, Ac - высококучевые, As - высокослоистые, Sc - слоисто-кучевые, Ns - слоисто-дождевые, Cu - кучевые, Cb - кучево-дождевые. Подробнее классификацию облаков см. в Атласе облаков (PDF).
T - Температура воздуха - температура, измеренная на высоте 2 м над землей.
Td - Температура точки росы - температура, при понижении до которой содержащийся в воздухе водяной пар достигнет насыщения.
f - Относительная влажность воздуха - влажноcть воздуха, измеренная на высоте 2 м над землей.
Te - Эффективная температура - температура, которую ощущает одетый по сезону человек в тени. Характеристика душности погоды. При расчете учитывается влияние влажности воздуха и скорости ветра на теплоощущения человека.
Tes - Эффективная температура на солнце - температура, которую ощущает человек, с поправкой на солнечный нагрев. Характеристика знойности погоды. Зависит от высоты солнца над горизонтом, облачности и скорости ветра. Ночью, в пасмурную погоду, а также при ветре 12 м/с и более поправка равна нулю.
P - Атмосферное давление - приведенное к уровню моря атмосферное давление.
Po - Атмосферное давление - измеренное на уровне метеостанции атмосферное давление.
Tmin - Минимальная температура - минимум температуры воздуха на высоте 2 м над землей.
Tmax - Максимальная температура - максимум температуры воздуха на высоте 2 м над землей.
R - Количество осадков - Количество выпавших осадков, мм. При наведении курсора мыши на число - период времени, за который выпало указанное количество осадков.
S - Снежный покров - Высота снежного покрова, см. При наведении курсора мыши на число - состояние снежного покрова и степень покрытия местности в баллах.